Regional Weather Roundup
Issued by NWS Pendleton, OR

Home | Current Version | Previous Version | Text Only | Print | Product List | Glossary On
Versions: 1 2 3 4 5 6 7 8 9 10 11 12 13 14 15 16 17 18 19 20 21 22 23 24 25 26 27 28 29 30 31 32 33 34 35 36 37 38 39 40 41 42 43 44 45 46 47 48 49 50
000
ASUS46 KPDT 300504
RWRPDT
PENDLETON REGIONAL WEATHER ROUNDUP
NATIONAL WEATHER SERVICE PENDLETON OREGON
1000 PM PDT SUN MAR 29 2015

NOTE: FAIR INDICATES FEW OR NO CLOUDS BELOW 12,000 FEET WITH NO
SIGNIFICANT WEATHER AND/OR OBSTRUCTIONS TO VISIBILITY.

# INDICATES UNOFFICIAL STATION AND DATA

WAZ520-300610-
EAST SLOPES OF WASHINGTON CASCADES

CITY            SKY/WX      TMP DP  RH  WIND    PRES   REMARKS
#BULLFROG       N/A         46  42  86  CALM    N/A
#BUMPING DAM    N/A         46  N/A N/A NE1     N/A
#CLE ELUM HS    N/A         47  41  79  CALM    30.11R
#CLE ELUM LAKE  N/A         46  41  83  CALM    30.13F
#CLIFFDEL 2NW   N/A         46  40  79  N1      N/A
#EASTON DOT     N/A         46  35  65  CALM    N/A
#ELK HTS DOT    N/A         48  48  100 W2      N/A
#GLENWOOD       N/A         41  36  82  CALM    30.14S
#MANASTASH CYN  N/A         43  35  73  CALM    30.11S
#NELSON         N/A         46  42  86  CALM    30.17S
#NELSON 3SW     N/A         42  40  93  CALM    30.37S
#NILE           N/A         44  39  82  CALM    29.40S
#PEOH POINT     N/A         41  40  96  S3      N/A
#RONALD 2NW     N/A         48  20  33  NE1     30.01S
#SNOWDEN        N/A         44  27  51  CALM    N/A
#SOUTH BLEWITT  N/A         46  41  83  CALM    N/A
#TEANAWAY 4NE   N/A         48  43  83  W1      N/A
#TROUT LAKE 1NE N/A         44  40  86  N1      30.15F
$$

WAZ521-300610-
SIMCOE HIGHLANDS

CITY            SKY/WX      TMP DP  RH  WIND    PRES   REMARKS
#SATUS PASS DOT N/A         42  29  60  CALM    N/A
#CENTERVILLE 4W N/A         52  39  61  NW5     29.88S
#CENTERVILLE 1SWN/A         50  37  61  NW2     30.10F
#GOLDENDALE     N/A         52  39  61  W5      N/A
#GOLDENDALE 1NE N/A         51  25  36  S3      N/A
#GOLDENDALE 5WNWN/A         54  39  57  W6      30.12S
#GOODNOE HILLS  N/A         55  39  55  NW8     N/A
#LYLE 6NE       N/A         54  40  59  SW1     30.11S
$$

WAZ026-300610-
KITTITAS VALLEY

CITY            SKY/WX      TMP DP  RH  WIND    PRES   REMARKS
ELLENSBURG AP   MOCLDY      51  41  68  NW12    30.14R
#ELLENSBURG CWU N/A         51  42  71  NW7     30.09R
#ELLENSBURG 3NE N/A         50  43  77  NW6     30.13R
#ELLENSBURG 1E  N/A         51  39  63  CALM    N/A
#KITTITAS 3S    N/A         50  42  74  CALM    30.13R
#MANASTASH RDG  N/A         49  49  100 W12     N/A    WCI 44
#ROCKY CYN DOT  N/A         50  41  71  W6      N/A
#RYEGRASS DOT   N/A         49  37  63  W6      N/A
#THORP 6N       N/A         47  41  79  N3      30.17R
$$

WAZ027-300610-
YAKIMA VALLEY

CITY            SKY/WX      TMP DP  RH  WIND    PRES   REMARKS
SUNNYSIDE AP    PTCLDY      44  39  82  E5      30.11R
YAKIMA AIRPORT  PTCLDY      58  39  49  N6      30.13R
YAKIMA-VAGABOND PTCLDY      52  40  63  E9      30.13R
#DONALD 2NE     N/A         54  32  43  CALM    28.96R
#GRANDVIEW      N/A         56  35  45  CALM    30.12R
#MABTON         N/A         54  37  52  S3      30.10S
#MOXEE 2E       N/A         54  32  43  CALM    30.04R
#NACHES 2SW     N/A         54  42  64  W3      30.13S
#PARKER DOT     N/A         60  38  44  S7      N/A
#SELAH 8E       N/A         50  39  66  CALM    N/A
#TERRACE HTS    N/A         51  40  66  CALM    30.09R
#TOPPENISH      N/A         57  41  55  N2      30.03R
#I82 S UMTANUM RN/A         53  37  54  N12     N/A
#UNION GAP DOT  N/A         58  39  49  NW2     N/A
#WAPATO 4NE     N/A         54  32  43  CALM    28.96R
#WEST VALLEY    N/A         55  39  55  N3      30.10S
#W YAKIMA       N/A         55  41  59  NW1     30.12S
#WHITE SWAN 5E  N/A         54  40  59  NW5     30.11S
#WILEY CITY 3W  N/A         48  30  49  CALM    30.12R
#ZILLAH DOT     N/A         54  40  59  S1      N/A
$$

WAZ028-300610-
LOWER COLUMBIA BASIN...WASHINGTON

CITY            SKY/WX      TMP DP  RH  WIND    PRES   REMARKS
PASCO           CLEAR       56  39  53  SE7     30.11R
PROSSER AWOS    N/A         52  39  61  W3      30.14S
RICHLAND AWOS   CLEAR       55  45  69  CALM    30.10S
#BASIN CITY 5SW N/A         52  42  69  E1      30.10S
#BENTON CITY    N/A         52  41  66  NW5     30.01S
#CONNELL 5N     N/A         54  42  64  CALM    30.11S
#CONNELL 5NW    N/A         51  43  74  CALM    30.07S
#ELTOPIA        N/A         54  41  61  CALM    30.07R
#ELTOPIA 6NW    N/A         57  40  53  CALM    29.07S
#KAHLOTUS       N/A         58  38  47  CALM    30.11S
#KENNEWICK 3S   N/A         57  41  55  S3      30.11R
#PASCO-BROADMOORN/A         56  39  53  CALM    29.99S
#PATERSON       N/A         59  39  47  NW2     30.09S
#PROSSER DOT    N/A         56  42  59  S1      N/A
#PROSSER        N/A         61  33  35  S2      30.10S
#SAGEMOOR 2W    N/A         55  42  61  E2      29.95S
#TOUCHET 2S     N/A         55  45  69  E1      30.09S
#WEST PASCO     N/A         58  38  47  CALM    30.11R
$$

WAZ029-300610-
FOOTHILLS OF THE BLUES...WASHINGTON

CITY            SKY/WX      TMP DP  RH  WIND    PRES   REMARKS
WALLA WALLA AP  PTCLDY      55  42  61  E8      30.12S
#DAYTON SCHOOL  N/A         52  38  59  N2      30.15R
#DELANEY DOT    N/A         54  42  64  SE7     N/A
#LOWDEN 2SE     N/A         52  46  80  E2      30.08S
#PLEASANT VIEW 1N/A         53  37  54  S5      30.16S
#PRESCOTT       N/A         50  44  80  CALM    30.12R
#SUDBURY        N/A         49  N/A N/A CALM    N/A
#WHITMAN COLLEGEN/A         58  42  55  N3      30.16S
#WAITSBURG 5S   N/A         54  41  61  S1      30.22S
#WAITSBURG 8N   N/A         46  23  40  CALM    29.97F
#WALLA WALLA 5E N/A         52  42  69  NE6     N/A
#WALLA WALLA U  N/A         57  46  67  CALM    30.11S
#WHITMAN MISSIONN/A         52  46  80  CALM    30.12S
$$

WAZ030-300610-
BLUE MOUNTAINS...WASHINGTON

CITY            SKY/WX      TMP DP  RH  WIND    PRES   REMARKS
#DIXIE 5SE      N/A         54  30  40  CALM    30.09S
$$

ORZ009-041-WAZ024-300610-
COLUMBIA RIVER GORGE

CITY            SKY/WX      TMP DP  RH  WIND    PRES   REMARKS
HOOD RIVER AP   PTCLDY      52  41  66  S5      30.15S
THE DALLES AP   PTCLDY      59  37  44  SW6     30.12S
#ARLINGTON AIRPON/A         58  37  45  SW3     29.98S
#CELILO DOT     N/A         59  34  39  CALM    N/A
#LYLE           N/A         60  41  49  N7      30.15S
#MARYHILL       N/A         56  37  49  CALM    N/A
#MOSIER 1S      N/A         54  30  40  SW3     30.12S
#MURDOCK        N/A         63  42  46  N14     30.13S
#RUFUS DOT      N/A         59  33  37  SE6     N/A

$$

ORZ510-300610-
NORTH CENTRAL OREGON

CITY            SKY/WX      TMP DP  RH  WIND    PRES   REMARKS
#CHENOWITH 1W   N/A         53  37  54  NW20    N/A
#COW CYN RST AREN/A         50  34  54  N5      N/A
#DUFUR 9E       N/A         53  36  52  W3      30.19S
#GRASS VALLEY 1SN/A         49  36  61  N1      30.16F
#KENT DOT       N/A         48  29  47  N6      N/A
#MAUPIN SCHOOL  N/A         56  39  53  CALM    30.16R
#MORO SCHOOL    N/A         52  40  63  W7      30.15F
#SHANIKO 5WSW   N/A         47  29  49  NE14    N/A    WCI 41
#SHANIKO 4NW    N/A         47  33  58  E6      30.16S
#TYGH VALLEY 2NEN/A         53  39  59  CALM    30.14R
#WAPANITIA AIRPON/A         46  40  79  CALM    30.15S
#WASCO DOT      N/A         47  35  63  N3      N/A
#WASCO 5NE      N/A         49  37  63  CALM    30.14R
$$

ORZ511-300610-
CENTRAL OREGON

CITY            SKY/WX      TMP DP  RH  WIND    PRES   REMARKS
BEND AIRPORT    MOCLDY      46  34  63  CALM    30.17R
MADRAS AIRPORT  PTCLDY      45  36  70  NW3     30.17R
PRINEVILLE AP   MOCLDY      46  34  63  CALM    30.15S
REDMOND AIRPORT MOCLDY      50  34  54  SW6     30.15S
#BEND 6E        N/A         49  32  52  CALM    30.08F
#BEND 1SW       N/A         46  37  71  CALM    N/A
#BEND-AWBREY    N/A         49  36  61  E1      30.14F
#BEND-KIM LN    N/A         50  36  58  CALM    30.14S
#CULVER         N/A         49  37  63  CALM    30.11S
#LAKE BILLY CHINN/A         56  18  22  NW7     30.20R
#POWELL BUTTE   N/A         49  34  56  W3      29.77S
#PRINEVILLE 3N  N/A         48  37  65  CALM    30.10S
#WARM SPRINGS   N/A         55  40  57  CALM    30.11R

$$


ORZ509-300610-
EAST SLOPES OF OREGON CASCADES

CITY            SKY/WX      TMP DP  RH  WIND    PRES   REMARKS
#BLUE BOX PASS  N/A         43  -10 10  CALM    N/A
#CAMP SHERMAN   N/A         45  37  73  CALM    30.19F
#LA PINE DOT    N/A         48  32  54  CALM    N/A
#LA PINE 4NW    N/A         43  35  73  CALM    30.22S
#LAVA BUTTE DOT N/A         43  31  62  CALM    N/A
#SISTERS AIRPOR N/A         51  43  74  CALM    30.17S
#SISTERS ODOT   N/A         49  N/A N/A CALM    N/A
#SISTERS 3N     N/A         47  31  53  CALM    30.19R
#SUNRIVER       N/A         45  36  70  CALM    30.07S
#TUMALO 3W      N/A         54  34  47  CALM    30.02S
#WANOGA BUTTE D N/A         45  29  53  W5      N/A

$$

ORZ044-300610-
LOWER COLUMBIA BASIN...OREGON

CITY            SKY/WX      TMP DP  RH  WIND    PRES   REMARKS
HERMISTON       CLEAR       53  38  57  SW9     30.11S
#BOARDMAN SCHOOLN/A         56  40  55  W2      30.12R
#BOARDMAN 8SW   N/A         54  40  59  SW6     30.11R
#ECHO 8SW       N/A         51  39  63  SW2     30.09S
#IONE SCHOOL    N/A         49  34  56  CALM    30.13S
#IRRIGON 4NW    N/A         53  42  66  W5      N/A
#UMATILLA       N/A         56  41  57  CALM    30.03R
$$

ORZ507-300610-
NORTHERN FOOTHILLS OF THE BLUES

CITY            SKY/WX      TMP DP  RH  WIND    PRES   REMARKS
PENDLETON AIRPT PTCLDY      53  41  64  S6      30.13S
#ADAMS 3WNW     N/A         47  42  83  CALM    30.14S
#ATHENA         N/A         48  42  80  CALM    30.15S
#CAYUSE         N/A         54  44  69  E7      30.12R
#HELIX SCHOOL   N/A         47  40  76  CALM    30.14R
#HELIX 3N       N/A         51  39  63  CALM    30.10S
#HELIX 6SW      N/A         46  40  79  E5      30.12S
#HOLDMAN 5SE    N/A         51  42  71  CALM    30.13S
#HOLDMAN 6E     N/A         53  39  59  CALM    29.94S
#M-F FERNDALE   N/A         56  42  59  CALM    30.11S
#M-F GROVE ELEM N/A         54  40  59  CALM    30.11S
#M-FREEWATER 5SEN/A         55  43  64  N5      30.12S
#PENDLETON DNTN N/A         54  36  50  CALM    30.14S
#PDT AQUATIC CTRN/A         54  35  48  CALM    30.13S
#PENDLETON 5NE  N/A         49  42  77  CALM    30.10S
#PDT SUNRIDGE   N/A         51  44  77  CALM    30.14S
#PENDLETON 7NW  N/A         50  42  74  CALM    28.06S
#TUTUILLA       N/A         47  42  83  S5      30.14R
#UMAPINE 2E     N/A         50  44  80  SE1     30.09S
#WESTON SCHOOL  N/A         53  38  57  CALM    30.12S

$$

ORZ508-300610-
SOUTHERN FOOTHILLS OF THE BLUES

CITY            SKY/WX      TMP DP  RH  WIND    PRES   REMARKS
LEXINGTON       PTCLDY      48  37  65  SE10    30.16F
#AJAX           N/A         54  28  36  CALM    30.08S
#CONDON SCHOOL  N/A         50  36  58  CALM    30.11S
#CONDON 5W      N/A         49  32  52  N3      30.13F
#FOSSIL SCHOOL  N/A         48  38  68  CALM    30.12S
#HEPPNER EOC    N/A         50  39  66  SE9     30.10S
#HEPPNER 4NE    N/A         47  36  65  E2      30.14F
#MIKKALO        N/A         53  34  48  S5      30.13S
#OLEX 4N        N/A         53  36  52  S7      30.12S
#RUGGS 5NE      N/A         48  31  51  CALM    30.30F
#RUGGS 2SW      N/A         48  37  65  SW7     30.16S

$$

ORZ502-503-300610-
BLUE MOUNTAINS

CITY            SKY/WX      TMP DP  RH  WIND    PRES   REMARKS
MEACHAM         PTCLDY      41  37  86  CALM    30.18S
#BATTLE MTN DOT N/A         44  43  96  CALM    N/A
#HEPPNER 15SE   N/A         40  36  85  CALM    30.09F
#LADD CYN SMT   N/A         45  31  58  E6      N/A
#LADD CREEK ODOTN/A         47  36  65  SW6     N/A
#LONG CREEK HS  N/A         46  41  83  CALM    30.12S
#N POWDER DOT   N/A         44  38  79  NW1     N/A
#PIKES PEAK     N/A         54  32  43  S9      27.99S
#TOLLGATE       N/A         40  33  76  CALM    30.12S
#TROY SCHOOL    N/A         54  42  64  CALM    30.00R
#UKIAH          N/A         42  38  86  CALM    30.20S
#WESTON 4E      N/A         51  34  52  CALM    30.09S
$$

ORZ505-300610-
JOHN DAY BASIN

CITY            SKY/WX      TMP DP  RH  WIND    PRES   REMARKS
JOHN DAY        PTCLDY      54  35  48  CALM    30.17R
#JOHN DAY KJDY  N/A         52  37  56  CALM    30.10F
#DAYVILLE SCHOOLN/A         56  36  47  W2      30.10R
#MITCHELL       N/A         49  41  74  CALM    30.27S
#MONUMENT HS    N/A         57  37  47  CALM    30.13S
#MT. VERNON 5SE N/A         50  35  56  CALM    30.12R
#WINLOCK        N/A         47  35  63  CALM    30.21F
$$

ORZ506-300610-
OCHOCO AND JOHN DAY HIGHLANDS

CITY            SKY/WX      TMP DP  RH  WIND    PRES   REMARKS
#BUCK CREEK DOT N/A         58  58  100 W6      N/A
#HORSE RIDGE DO N/A         46  31  56  SE1     N/A
#PAULINA SCHOOL N/A         56  37  49  CALM    30.10S
#PINE MTN OBS   N/A         44  31  60  N5      N/A
#PRAIRIE CITY   N/A         47  37  68  CALM    30.19S
#SENECA         N/A         45  N/A N/A CALM    N/A
#SENECA 9NW     N/A         42  34  73  CALM    30.17S
$$

ORZ049-300610-
GRANDE RONDE VALLEY

CITY            SKY/WX      TMP DP  RH  WIND    PRES   REMARKS
LA GRANDE       MOCLDY      50  32  50  W6      30.14S
#COVE           N/A         47  40  76  CALM    30.15R
#COVE SCHOOL    N/A         46  38  73  CALM    30.12R
#ELGIN 3N       N/A         47  36  65  CALM    30.13R
#ELGIN 1E       N/A         51  39  63  CALM    N/A
#IMBLER SCHOOL  N/A         49  39  68  CALM    30.10R
#ISLAND CITY 4N N/A         52  48  86  CALM    30.14S
#LADD CYN DOT   N/A         51  33  50  SE9     N/A
#UNION 1S       N/A         56  35  45  SE1     30.05S
$$

ORZ050-300610-
WALLOWA COUNTY

CITY            SKY/WX      TMP DP  RH  WIND    PRES   REMARKS
#ENTERPRISE HS  N/A         46  36  68  CALM    30.16R
#IMNAHA 10S     N/A         52  34  50  SW3     30.14R
#JOSEPH 3N      N/A         39  34  82  CALM    30.17F
#JOSEPH 3W      N/A         44  33  65  SW3     30.01F
#LOSTINE        N/A         46  36  68  E1      29.97S
#MT HOWARD 8000 N/A         38  27  64  SW3     30.25F
#PROMISE 1S     N/A         45  37  73  CALM    30.27S
#SHEEP RDG 7000 N/A         42  27  55  CALM    30.21F
#WALLOWA SCHOOL N/A         46  39  76  CALM    31.13R



$$



USA.gov is the U.S. government's official web portal to all federal, state and local government web resources and services.